Flag for Ukraine Weather past 2 weeks in Odesa, Ukraine

Now
77 °F

Passing clouds.


Feels Like: 79 °F
Forecast: 70 / 84 °F
Wind: 6 mph from Southeast

Location: Odesa Airport

Current Time: Jul 28, 2014 at 10:20:47 PM

Latest Report: Jul 28, 2014 at 9:30 PM


Visibility: N/A

Pressure: 29.98 "Hg

Humidity: 61%

Dew point: 63 °F

Location of OdesaLocation

Historic Weather in Odesa — Graph

°F

Odesa temperature yesterday

Maximum temperature yesterday: 90 °F (at 4:00 PM)
Minimum temperature yesterday: 72 °F (at 5:00 AM)
Average temperature yesterday: 81 °F

Past Weeks' High & Low Weather Summary

 TemperatureHumidityPressure
High93 °F (Jul 26, 3:00 PM)100% (Jul 17, 1:00 PM)30.04 "Hg (Jul 17, 1:00 PM)
Low64 °F (Jul 21, 5:00 AM)24% (Jul 26, 3:00 PM)29.74 "Hg (Jul 24, 5:30 AM)
Average78 °F60%29.86 "Hg
* Reported Jul 13 9:00 PM — Jul 28 9:00 PM, Odesa, Weather by CustomWeather, © 2014

Note: Actual official high and low records may vary slightly from our data, if they occured in-between our weather recording intervals... More about our weather records

Advertising

Odesa weather history for previous 24 hours

 ConditionsComfort  
Time TempWeatherWind HumidityBarometerVisibility
9:00 PM
Jul 28
77 °FPassing clouds.6 mph54%29.98 "HgN/A
8:30 PM81 °FSunny.6 mph42%29.98 "Hg10 mi
8:00 PM81 °FPassing clouds.3 mph39%29.98 "HgN/A
7:30 PM82 °FSunny.6 mph35%29.98 "Hg10 mi
7:00 PM84 °FSunny.8 mph31%29.98 "Hg10 mi
6:30 PM84 °FSunny.6 mph33%29.98 "Hg10 mi
6:00 PM86 °FPassing clouds.6 mph31%29.98 "HgN/A
5:30 PM86 °FPassing clouds.6 mph29%29.98 "HgN/A
5:00 PM86 °FSunny.8 mph27%30.01 "Hg10 mi
4:30 PM88 °FPassing clouds.8 mph27%30.01 "HgN/A
4:00 PM86 °FPassing clouds.8 mph31%30.01 "HgN/A
3:30 PM86 °FPassing clouds.10 mph33%30.01 "HgN/A
3:00 PM86 °FPassing clouds.8 mph33%30.01 "HgN/A
2:30 PM86 °FPassing clouds.10 mph33%30.01 "HgN/A
2:00 PM84 °FPassing clouds.10 mph37%30.04 "HgN/A
1:30 PM84 °FPassing clouds.10 mph45%30.04 "HgN/A
1:00 PM82 °FPassing clouds.8 mph48%30.04 "HgN/A
12:30 PM82 °FPassing clouds.8 mph51%30.04 "HgN/A
12:00 PM82 °FPassing clouds.10 mph51%30.04 "HgN/A
11:30 AM82 °FPassing clouds.10 mph55%30.04 "HgN/A
11:00 AM82 °FPassing clouds.8 mph55%30.04 "HgN/A
10:30 AM82 °FPassing clouds.10 mph58%30.04 "HgN/A
10:00 AM82 °FPassing clouds.8 mph55%30.04 "HgN/A
9:30 AM81 °FPassing clouds.8 mph62%30.04 "HgN/A
9:00 AM79 °FPassing clouds.8 mph61%30.04 "HgN/A
8:30 AM79 °FSunny.15 mph61%30.04 "Hg10 mi
8:00 AM77 °FSunny.13 mph69%30.04 "Hg10 mi
7:30 AM77 °FSunny.10 mph69%30.04 "Hg10 mi
7:00 AM73 °FPassing clouds.8 mph78%30.04 "HgN/A
6:30 AM72 °FClear.8 mph83%30.01 "Hg10 mi
5:30 AM70 °FClear.10 mph83%30.01 "Hg10 mi
5:00 AM68 °FClear.8 mph78%30.01 "Hg10 mi
4:30 AM68 °FClear.6 mph73%30.01 "Hg10 mi
4:00 AM66 °FClear.6 mph78%30.01 "Hg10 mi
3:30 AM68 °FClear.6 mph73%30.01 "Hg10 mi
3:00 AM70 °FClear.3 mph69%30.01 "Hg10 mi
2:30 AM70 °FClear.1 mph69%30.01 "Hg10 mi
2:00 AM70 °FClear.No wind69%30.01 "Hg10 mi
1:30 AM70 °FClear.No wind64%30.01 "Hg10 mi
1:00 AM73 °FClear.No wind61%30.01 "Hg10 mi
12:30 AM72 °FClear.No wind65%30.01 "Hg10 mi
12:00 AM73 °FClear.No wind57%30.01 "Hg10 mi
11:30 PM
Jul 27
73 °FClear.No wind57%30.01 "Hg10 mi
11:00 PM75 °FClear.No wind57%30.01 "Hg10 mi
10:30 PM75 °FClear.No wind57%30.01 "Hg10 mi
10:00 PM77 °FClear.No wind54%30.01 "Hg10 mi
Weather by CustomWeather, © 2014

See weather overviewHow to use our weather pages